{"data":{"norad_id":65536,"epoch":"2026-05-25T03:17:43.168416Z","epoch_age_seconds":70000,"freshness":"FRESH","line1":"1 65536U 25200S   26145.13730519 -.00007532  00000+0 -51875-3 0  9998","line2":"2 65536  97.4501 214.7780 0002313 178.1716 181.9520 15.05630269 40638","mean_motion":15.05630269,"eccentricity":0.0002313,"inclination_deg":97.4501,"raan_deg":214.778,"arg_perigee_deg":178.1716,"mean_anomaly_deg":181.952,"bstar":-0.00051875,"rev_number":4063,"period_min":95.641010256549,"perigee_km":547.96929856928,"apogee_km":551.17405660353,"semimajor_km":6927.7086775864,"source":"CELESTRAK","updated_at":"2026-05-25T13:38:20.849628Z"}}